Binghamton, NY

11:03 AM EDT on April 28, 2017 (GMT -0400)
Binghamton Regional-Link

Weather History for KBGM - October, 2013

Change the Weather History Date:

Friday, October 18, 2013

  Actual Average Record
Temperature  
Mean Temperature 52 °F 48 °F  
Max Temperature 57 °F 56 °F 77 °F (2016)
Min Temperature 46 °F 39 °F 22 °F (1974)
Degree Days  
Heating Degree Days 13 17  
Month to date heating degree days 118 261  
Since 1 July heating degree days 410 518  
Cooling Degree Days 0 0  
Month to date cooling degree days 12 0  
Year to date cooling degree days 480 379  
Growing Degree Days 2 (Base 50)    
Moisture  
Dew Point 43 °F    
Average Humidity 76    
Maximum Humidity 100    
Minimum Humidity 51    
Precipitation  
Precipitation T in 0.11 in 1.48 in (1967)
Month to date precipitation 1.89 1.98  
Year to date precipitation 35.09 31.82  
Snow  
Snow 0.00 in 0.00 in 0.70 in (1972)
Month to date snowfall 0.0 0.2  
Since 1 July snowfall 0.0 0.2  
Since 1 September snowfall 0.0 0.2  
Snow Depth 0.00 in    
Sea Level Pressure  
Sea Level Pressure 29.85 in    
Wind  
Wind Speed 11 mph (West)    
Max Wind Speed 22 mph    
Max Gust Speed 28 mph    
Visibility 10 miles    
Events Rain    
T = Trace of Precipitation, MM = Missing Value Source: NWS Daily Summary

Daily Weather History Graph

Daily Weather History Graph

Search for Another Location

Airport or City:

Trip Planner

Search our weather history database for the weather conditions in past years. The results will help you decide how hot, cold, wet, or windy it might be!

Date:

Astronomy

Oct. 18, 2013 Rise Set
Actual Time 7:20 AM EDT 6:17 PM EDT
Civil Twilight 6:51 AM EDT 6:45 PM EDT
Nautical Twilight 6:19 AM EDT 7:17 PM EDT
Astronomical Twilight 5:46 AM EDT 7:50 PM EDT
Moon 6:05 PM EDT (10/18) 6:53 AM EDT (10/18)
Length of Visible Light 11h 53m
Length of Day
10h 56m
Full, 100% of the Moon is Illuminated
Oct 18
Full
Oct 18
Full
Oct 26
Last Quarter
Nov 3
New
Nov 10
First Quarter

Hourly Weather History & Observations

Time (EDT) Temp. Windchill Dew Point Humidity Pressure Visibility Wind Dir Wind Speed Gust Speed Precip Events Conditions
12:48 AM 51.8 °F - 51.8 °F 100% 29.72 in 8.0 mi WSW 9.2 mph - N/A   Overcast
12:53 AM 51.1 °F - 51.1 °F 100% 29.72 in 8.0 mi WSW 9.2 mph - N/A   Overcast
1:53 AM 51.1 °F - 50.0 °F 96% 29.73 in 10.0 mi West 15.0 mph - 0.00 in   Overcast
2:40 AM 51.8 °F - 50.0 °F 94% 29.75 in 5.0 mi West 15.0 mph 21.9 mph 0.00 in Rain Light Rain
2:53 AM 50.0 °F - 48.9 °F 96% 29.75 in 5.0 mi West 17.3 mph 25.3 mph 0.00 in Rain Light Rain
3:06 AM 50.0 °F - 48.2 °F 94% 29.76 in 10.0 mi West 11.5 mph 21.9 mph 0.00 in   Overcast
3:12 AM 50.0 °F - 48.2 °F 94% 29.76 in 10.0 mi West 12.7 mph - 0.00 in   Overcast
3:27 AM 50.0 °F - 46.4 °F 87% 29.76 in 10.0 mi West 10.4 mph - 0.00 in   Overcast
3:53 AM 48.9 °F - 46.9 °F 93% 29.76 in 10.0 mi West 9.2 mph - 0.00 in   Overcast
4:53 AM 48.0 °F - 45.0 °F 89% 29.78 in 10.0 mi West 13.8 mph 19.6 mph N/A   Mostly Cloudy
5:10 AM 48.2 °F - 44.6 °F 87% 29.78 in 10.0 mi West 11.5 mph - N/A   Scattered Clouds
5:53 AM 46.9 °F - 43.0 °F 86% 29.79 in 10.0 mi West 13.8 mph - N/A   Scattered Clouds
6:53 AM 46.0 °F 40.6 °F 42.1 °F 86% 29.81 in 10.0 mi West 11.5 mph - N/A   Clear
7:53 AM 46.9 °F - 42.1 °F 83% 29.83 in 10.0 mi West 9.2 mph - N/A   Mostly Cloudy
8:53 AM 48.9 °F - 43.0 °F 80% 29.86 in 10.0 mi West 10.4 mph - N/A   Clear
9:53 AM 52.0 °F - 41.0 °F 66% 29.87 in 10.0 mi West 15.0 mph 25.3 mph N/A   Clear
10:53 AM 54.0 °F - 39.9 °F 59% 29.89 in 10.0 mi West 16.1 mph 23.0 mph N/A   Partly Cloudy
11:53 AM 55.0 °F - 39.0 °F 55% 29.90 in 10.0 mi West 18.4 mph 23.0 mph N/A   Partly Cloudy
12:53 PM 55.9 °F - 39.9 °F 55% 29.90 in 10.0 mi West 11.5 mph - N/A   Overcast
1:53 PM 55.0 °F - 37.9 °F 53% 29.90 in 10.0 mi West 13.8 mph - N/A   Mostly Cloudy
2:53 PM 55.0 °F - 39.0 °F 55% 29.90 in 10.0 mi West 13.8 mph 20.7 mph N/A   Mostly Cloudy
3:53 PM 55.0 °F - 39.0 °F 55% 29.90 in 10.0 mi West 11.5 mph 21.9 mph N/A   Mostly Cloudy
4:53 PM 55.0 °F - 39.0 °F 55% 29.91 in 10.0 mi West 17.3 mph 26.5 mph N/A   Mostly Cloudy
5:53 PM 52.0 °F - 39.0 °F 61% 29.93 in 10.0 mi West 8.1 mph - N/A   Clear
6:53 PM 48.9 °F - 39.0 °F 69% 29.94 in 10.0 mi West 5.8 mph - N/A   Clear
7:53 PM 48.0 °F - 37.9 °F 68% 29.95 in 10.0 mi WSW 5.8 mph - N/A   Partly Cloudy
8:53 PM 48.0 °F - 37.9 °F 68% 29.96 in 10.0 mi SW 4.6 mph - N/A   Clear
9:53 PM 48.9 °F - 37.0 °F 64% 29.96 in 10.0 mi SSW 4.6 mph - N/A   Clear
10:53 PM 46.9 °F - 37.9 °F 71% 29.96 in 10.0 mi SSW 5.8 mph - N/A   Clear
11:53 PM 46.0 °F 42.5 °F 37.0 °F 71% 29.96 in 10.0 mi SSW 6.9 mph - N/A   Clear